Satellite: NOAA-10
Catalog number: 16969
Epoch time:      08241.49673108
Element set:     267
Inclination:      098.7218 deg
RA of node:       263.3140 deg
Eccentricity:    0.0012022
Arg of perigee:   334.7987 deg
Mean anomaly:     025.2619 deg
Mean motion:   14.27366971 rev/day
Decay rate:        4.6e-07 rev/day^2
Epoch rev:           14175
Checksum:              312

Satellite: NOAA-11
Catalog number: 19531
Epoch time:      08241.36992887
Element set:     299
Inclination:      098.7969 deg
RA of node:       329.6853 deg
Eccentricity:    0.0011065
Arg of perigee:   219.8732 deg
Mean anomaly:     140.1658 deg
Mean motion:   14.14876639 rev/day
Decay rate:       2.55e-06 rev/day^2
Epoch rev:            2811
Checksum:              345

Satellite: NOAA-12
Catalog number: 21263
Epoch time:      08241.63647697
Element set:     813
Inclination:      098.7703 deg
RA of node:       243.5915 deg
Eccentricity:    0.0011479
Arg of perigee:   277.3102 deg
Mean anomaly:     082.6771 deg
Mean motion:   14.25543733 rev/day
Decay rate:      .00000000 rev/day^2
Epoch rev:           89871
Checksum:              303

Satellite: MET-3/5
Catalog number: 21655
Epoch time:      08241.51593069
Element set:     479
Inclination:      082.5525 deg
RA of node:       053.2723 deg
Eccentricity:    0.0012972
Arg of perigee:   188.1188 deg
Mean anomaly:     171.9727 deg
Mean motion:   13.17016632 rev/day
Decay rate:        5.1e-07 rev/day^2
Epoch rev:           81910
Checksum:              305

Satellite: MET-2/21
Catalog number: 22782
Epoch time:      08240.87293065
Element set:     235
Inclination:      082.5450 deg
RA of node:       054.6988 deg
Eccentricity:    0.0024076
Arg of perigee:   089.2138 deg
Mean anomaly:     271.1782 deg
Mean motion:   13.83630249 rev/day
Decay rate:        3.4e-07 rev/day^2
Epoch rev:           75704
Checksum:              312

Satellite: OKEAN-4
Catalog number: 23317
Epoch time:      08240.73079757
Element set:     678
Inclination:      082.5365 deg
RA of node:       248.3070 deg
Eccentricity:    0.0020395
Arg of perigee:   250.1307 deg
Mean anomaly:     109.7729 deg
Mean motion:   14.82630771 rev/day
Decay rate:       1.49e-06 rev/day^2
Epoch rev:           74888
Checksum:              323

Satellite: NOAA-14
Catalog number: 23455
Epoch time:      08241.52449491
Element set:     284
Inclination:      098.9417 deg
RA of node:       313.7913 deg
Eccentricity:    0.0008563
Arg of perigee:   302.3748 deg
Mean anomaly:     057.6584 deg
Mean motion:   14.13747992 rev/day
Decay rate:        6.4e-07 rev/day^2
Epoch rev:           70457
Checksum:              331

Satellite: SICH-1
Catalog number: 23657
Epoch time:      08240.73652903
Element set:    0478
Inclination:      082.5279 deg
RA of node:       029.2911 deg
Eccentricity:    0.0022307
Arg of perigee:   243.1939 deg
Mean anomaly:     116.6993 deg
Mean motion:   14.81599623 rev/day
Decay rate:       2.26e-06 rev/day^2
Epoch rev:           70081
Checksum:              313

Satellite: NOAA-15
Catalog number: 25338
Epoch time:      08241.41278962
Element set:     601
Inclination:      098.5596 deg
RA of node:       231.4537 deg
Eccentricity:    0.0010501
Arg of perigee:   185.4548 deg
Mean anomaly:     174.6519 deg
Mean motion:   14.24722625 rev/day
Decay rate:       1.03e-06 rev/day^2
Epoch rev:           53508
Checksum:              300

Satellite: RESURS
Catalog number: 25394
Epoch time:      08240.98151087
Element set:    0019
Inclination:      098.3826 deg
RA of node:       281.6500 deg
Eccentricity:    0.0002058
Arg of perigee:   018.2283 deg
Mean anomaly:     341.8968 deg
Mean motion:   14.24168452 rev/day
Decay rate:       -4.0e-08 rev/day^2
Epoch rev:           52666
Checksum:              300

Satellite: FENGYUN1
Catalog number: 25730
Epoch time:      08241.55488326
Element set:     554
Inclination:      098.7258 deg
RA of node:       214.8987 deg
Eccentricity:    0.0020826
Arg of perigee:   327.2497 deg
Mean anomaly:     032.7379 deg
Mean motion:   14.07763124 rev/day
Decay rate:       6.07e-06 rev/day^2
Epoch rev:           47914
Checksum:              331

Satellite: OKEAN-0
Catalog number: 25860
Epoch time:      08240.55314214
Element set:     456
Inclination:      097.7558 deg
RA of node:       227.9628 deg
Eccentricity:    0.0001860
Arg of perigee:   061.1938 deg
Mean anomaly:     298.9457 deg
Mean motion:   14.73533408 rev/day
Decay rate:        1.4e-07 rev/day^2
Epoch rev:           48990
Checksum:              323

Satellite: NOAA-16
Catalog number: 26536
Epoch time:      08241.53078603
Element set:      75
Inclination:      099.1630 deg
RA of node:       232.3121 deg
Eccentricity:    0.0010964
Arg of perigee:   027.2485 deg
Mean anomaly:     332.9273 deg
Mean motion:   14.12495542 rev/day
Decay rate:       2.24e-06 rev/day^2
Epoch rev:           40898
Checksum:              291

Satellite: NOAA-17
Catalog number: 27453
Epoch time:      08241.49572491
Element set:      69
Inclination:      098.5289 deg
RA of node:       304.0072 deg
Eccentricity:    0.0010770
Arg of perigee:   255.7921 deg
Mean anomaly:     104.2078 deg
Mean motion:   14.23998318 rev/day
Decay rate:       1.76e-06 rev/day^2
Epoch rev:           32109
Checksum:              312

Satellite: NOAA-18
Catalog number: 28654
Epoch time:      08241.51485015
Element set:     557
Inclination:      098.8694 deg
RA of node:       181.5653 deg
Eccentricity:    0.0015260
Arg of perigee:   107.9444 deg
Mean anomaly:     252.3372 deg
Mean motion:   14.11188754 rev/day
Decay rate:        6.9e-07 rev/day^2
Epoch rev:           16867
Checksum:              329

/EX
SB KEPS @ AMSAT  $ORB08241.M
Orbital Elements  08241.MISC

HR AMSAT ORBITAL ELEMENTS FOR MANNED AND MISCELLANEOUS SATELLITES
FROM WA5QGD FORT WORTH,TX August 28, 2008
Send Subscribe/unsubscribe to KEPS at 
http://www.amsat.org/mailman/listinfo/keps
BID: ORB08241.M
TO ALL RADIO AMATEURS BT

Satellite: HUBBLE
Catalog number: 20580
Epoch time:      08241.31659613
Element set:     209
Inclination:      028.4681 deg
RA of node:       212.7682 deg
Eccentricity:    0.0003749
Arg of perigee:   072.8240 deg
Mean anomaly:     287.2759 deg
Mean motion:   15.00402555 rev/day
Decay rate:       2.94e-06 rev/day^2
Epoch rev:           80582
Checksum:              292

Satellite: PO-34
Catalog number: 25520
Epoch time:      08240.83000108
Element set:      67
Inclination:      028.4585 deg
RA of node:       059.1183 deg
Eccentricity:    0.0005025
Arg of perigee:   345.1019 deg
Mean anomaly:     014.9428 deg
Mean motion:   15.17222006 rev/day
Decay rate:       3.39e-06 rev/day^2
Epoch rev:           54405
Checksum:              259

Satellite: ISS
Catalog number: 25544
Epoch time:      08241.50381381
Element set:     142
Inclination:      051.6429 deg
RA of node:       005.2860 deg
Eccentricity:    0.0006422
Arg of perigee:   054.0673 deg
Mean anomaly:     034.8176 deg
Mean motion:   15.71777722 rev/day
Decay rate:       7.94e-06 rev/day^2
Epoch rev:           55991
Checksum:              291

Satellite: CO-58
Catalog number: 28895
Epoch time:      08241.43932393
Element set:     106
Inclination:      098.0884 deg
RA of node:       133.7096 deg
Eccentricity:    0.0017710
Arg of perigee:   179.4957 deg
Mean anomaly:     180.6253 deg
Mean motion:   14.59691689 rev/day
Decay rate:        9.5e-07 rev/day^2
Epoch rev:           15102
Checksum:              344

Satellite: NCUBE2
Catalog number: 28897
Epoch time:      08241.25828563
Element set:     636
Inclination:      098.0870 deg
RA of node:       133.4569 deg
Eccentricity:    0.0016820
Arg of perigee:   182.3441 deg
Mean anomaly:     177.7666 deg
Mean motion:   14.59864485 rev/day
Decay rate:        8.1e-07 rev/day^2
Epoch rev:           14328
Checksum:              339

Satellite: FALCON
Catalog number: 30776
Epoch time:      08240.91659032
Element set:    0396
Inclination:      035.4339 deg
RA of node:       078.4546 deg
Eccentricity:    0.0002039
Arg of perigee:   295.9691 deg
Mean anomaly:     064.0815 deg
Mean motion:   15.03039872 rev/day
Decay rate:       1.65e-06 rev/day^2
Epoch rev:           08094
Checksum:              310

Satellite: MAST
Catalog number: 31126
Epoch time:      08240.63196163
Element set:    0407
Inclination:      098.0335 deg
RA of node:       302.1902 deg
Eccentricity:    0.0095855
Arg of perigee:   110.3704 deg
Mean anomaly:     250.7834 deg
Mean motion:   14.53441861 rev/day
Decay rate:       -5.2e-07 rev/day^2
Epoch rev:           07239
Checksum:              271

Satellite: CAPE1
Catalog number: 31130
Epoch time:      08241.41241998
Element set:     390
Inclination:      098.0340 deg
RA of node:       301.7842 deg
Eccentricity:    0.0103784
Arg of perigee:   111.1775 deg
Mean anomaly:     250.0544 deg
Mean motion:   14.51987820 rev/day
Decay rate:       1.10e-06 rev/day^2
Epoch rev:            7220
Checksum:              256

Satellite: COMPASS
Catalog number: 32787
Epoch time:      08240.78099736
Element set:    0140
Inclination:      097.9834 deg
RA of node:       300.4478 deg
Eccentricity:    0.0014905
Arg of perigee:   265.5873 deg
Mean anomaly:     094.3637 deg
Mean motion:   14.81450586 rev/day
Decay rate:       -6.9e-07 rev/day^2
Epoch rev:           01800
Checksum:              325

Satellite: AAUSAT2
Catalog number: 32788
Epoch time:      08240.97468846
Element set:    0143
Inclination:      097.9853 deg
RA of node:       300.6608 deg
Eccentricity:    0.0013881
Arg of perigee:   265.3255 deg
Mean anomaly:     094.6369 deg
Mean motion:   14.81560562 rev/day
Decay rate:      -1.10e-06 rev/day^2
Epoch rev:           01803
Checksum:              316

